Location: Clair
(33.8067°N, 117.9845°W)
Time: 07:41:01
(UTC+00:00)

NOSS 3-1 (C) - Pass Details

Date: 14 February 2026
Orbit: 618 x 1583 km, 63.4° (Epoch: 10 January)

Event Time Altitude Azimuth Distance (km) Brightness Sun altitude
Exits shadow 12:39:19 46° 355° (N) 914 3.3 -25.1°
Drops below altitude 10° 12:43:12 10° 24° (NNE) 2,279 5.7 -24.3°
Sets 12:45:52 0° 28° (NNE) 3,336 6.7 -23.7°
